User: anonymous   Login
Location: Christchurch
(43.5330°S, 172.6330°E)
Time: 20:12:40
(UTC+13:00)
Language:

Cosmos 2208 Rocket - Orbit

View from above orbital plane
View from above orbital plane
View from above satellite
View from above satellite

Ground track
Ground track

The orbit data is extracted from the following two-line orbital elements,

1 22081U 92053B   19295.58958345 -.00000026 +00000-0 -65234-7 0  9992
2 22081 074.0415 310.7998 0034747 069.2996 291.1874 14.33457785421218
Epoch (UTC): 22 October 2019 14:09:00
Eccentricity: 0.0034747
inclination: 74.0415°
perigee height: 755 km
apogee height: 805 km
right ascension of ascending node: 310.7998°
argument of perigee: 69.2996°
revolutions per day: 14.33457785
mean anomaly at epoch: 291.1874°
orbit number at epoch: 42121

The dashed part of the orbit path shows where the satellite is in the earth's shadow,  

DLR